COSMOS 2251 DEB, 33785

Orbit data source: Space-Track

COSMOS 2251 DEB, 33785 is space debris in LEO originally from a launch on Wed, 16 Jun 1993 UTC launched from the Plesetsk Missile And Space Complex (PKMTR). The debris from Iridium 33, an American commercial communications satellite, has been tracked extensively since its accidental collision with the defunct Russian satellite Cosmos 2251 in 2009. This event, occurring at high speed in low Earth orbit (LEO), generated thousands of pieces of space debris, significantly increasing the risk of further collisions. The Iridium 33 debris cloud has impacted space traffic management and orbital debris mitigation strategies, making it a subject of ongoing study in space situational awareness.

Loading next visibility...
Identifier
33785, 1993-036AA
Orbit
LEO
Country
Flag of CISCIS
Related business
Manufacturer
Unknown
Mission
Spacecraft
Bus & Motor
Unknown
Mass
Unknown
Launch date (UTC)
1993-06-16 (33 years ago)
Launch vehicle
Unknown
Launch site
Plesetsk Missile And Space Complex (PKMTR)
Object type
Payload
Rocket body
Debris
Shape & HBR
Unknown shape, 0.1 m
Radar Cross Section
Medium (>0.1 m² and <1 m²)

Expand to show TLE details & history
Last TLE update: 4 hours ago

TLE from 4 hours ago
0 COSMOS 2251 DEB
1 33785U 93036AA  26263.17060227  .00003082  00000-0  45774-3 0  9994
2 33785  73.8631 225.5358 0015157 113.3930 259.8074 14.75421493926524
Epoch: 2026-09-20T04:05Z
TLE epoch observation values (Epoch: 2026-09-20T04:05:40.036Z)
Latitude
12.47337°
Longitude
168.70006°
Altitude
647.601 km
Speed
7.534 km/s
True Right ascension
15h 16m 44s
True Declination
12° 23' 60"
Sunlit
Object was in daylight at epoch
Visualization orbit readout
Latitude
Unknown
Longitude
Unknown
Altitude
Unknown
Speed
Unknown
Apparent Right ascension
Unknown
Apparent Declination
Unknown
Sunlit
N/A
Visualization observer readout
Local Sidereal Time
00:44:06
Azimuth
Unknown
Elevation
Unknown
Doppler factor
Unknown
Orbital elements
Apogee altitude
652.049 km
Perigee altitude
630.77 km
Semi-major axis
7,019.546 km
Eccentricity
0.00152
Inclination
73.8631°
RAAN
225.5358°
Arg. of periapsis
113.393°
True anomaly
259.63651°
Mean anomaly
259.8074°
Eccentric anomaly
259.72195°
Mean motion
3.69045 °/min
Orbital period
97.55 mins
BSTAR
0.00045774

Documentation

Showing up to 5 results
|